www.pogodaiklimat.ru

Погода и климат >> Архив погоды >> Боливия >> Сан-Матиас


ПОГОДА в Сан-Матиасе

  • Прогноз погоды в Сан-Матиасе
  • Монитор погоды в Сан-Матиасе

АРХИВ ПОГОДЫ в Сан-Матиасе

Время (UTC), дата Ветер
(напр.,м/с)
 
Видим.   Явления Облачность Т
(С)
Тd
(С)
f
(%)
Тe
(С)
Тes
(С)
Комфортность P
(гПа)
Po
(гПа)
Тmin
(С)
Tmax
(С)
R
(мм)
R24
(мм)
S
(см)
21 12.02 штиль 0 30 км 10/0 2000 м
[As op]
+26.0 +24.0 89 +36 +36 очень
душно
1013.2 1003.0 +33.0
12 13.02 штиль 0 1000 м морось {дождь} 10/10 210 м
[Frnb]
+22.5 +22.5 100 +30 +30 очень
душно
1016.7 1005.5 +22.5 19
15 13.02 Ю 4 20 км 10/10 300 м
[Sc]
+24.0 +22.6 92 +31 +31 очень
душно
1017.5 1006.2
18 13.02 штиль 0 30 км {морось} 10/10 450 м
[Sc]
+28.0 +23.2 75 +38 +38 очень
душно
1015.2 1004.5 0.3
21 13.02 штиль 0 30 км 8/8 500 м
[Sc]
+29.0 +24.3 76 +41 +41 опасность
перегрева
1012.6 1002.0 +29.7
12 14.02 штиль 0 30 км 10/4 360 м
[Sc As op Ci]
+25.2 +22.9 87 +33 +36 очень
душно
1016.2 1005.0 +21.5 0.3
15 14.02 С 3 30 км 5/5 500 м
[Cu hum]
+31.0 +24.4 68 +43 +52 опасность
перегрева
1016.6 1005.5
18 14.02 штиль 0 30 км 8/8 500 м
[Cu med, cong]
+32.0 +24.0 63 +44 +48 опасность
перегрева
1012.7 1002.0
21 14.02 СЗ 6 30 км 10/8 500 м
[Cu Sc Ci]
+26.0 +23.3 85 +35 +35 очень
душно
1013.6 1003.0 +33.0
12 15.02 штиль 0 30 км 10/4 360 м
[Sc As op]
+24.0 +23.3 96 +32 +33 очень
душно
1016.6 1005.0 +23.0 9
18 15.02 штиль 0 4000 м слаб. дождь 10/10 450 м
[Sc]
+26.0 +25.4 97 +38 +38 очень
душно
1013.7 1003.2 4
21 15.02 штиль 0 30 км 10/5 450 м
[Sc As op]
+26.0 +25.4 97 +38 +38 очень
душно
1011.6 1001.0 +28.5
12 16.02 С 3 30 км 6/4 360 м
[Sc Ac trans]
+24.7 +24.0 96 +34 +37 очень
душно
1014.7 1004.0 +23.0 21
15 16.02 штиль 0 30 км 10/8 500 м
[Cu med, cong Ci]
+31.0 +25.1 71 +45 +49 опасность
перегрева
1015.6 1004.0
18 16.02 штиль 0 30 км 10/6 500 м
[Cu med, cong Ci]
+32.2 +24.0 62 +44 +51 опасность
перегрева
1011.5 1001.0
21 16.02 штиль 0 30 км 8/8 500 м
[Cu med, cong]
+30.0 +24.7 73 +43 +43 опасность
перегрева
1009.6 999.0 +34.0
12 17.02 штиль 0 30 км ясно +26.0 +23.0 84 +35 +44 очень
душно
1013.6 1003.0 +23.0
15 17.02 штиль 0 30 км 8/8 500 м
[Cu med, cong]
+26.4 +25.0 92 +38 +44 очень
душно
1014.7 1000.0
18 17.02 штиль 0 30 км 6/6 500 м
[Cu med, cong]
+33.0 +23.7 58 +44 +53 опасность
перегрева
1011.8 1001.0
12 18.02 штиль 0 30 км 8/0 2000 м
[Ac trans]
+25.5 +23.6 89 +35 +39 очень
душно
1014.6 1004.0 +23.0
15 18.02 С 6 30 км 5/5 600 м
[Cu hum]
+32.0 +25.4 68 +46 +50 опасность
перегрева
1015.7 1004.6
18 18.02 С 4 30 км 6/6 600 м
[Cu med, cong]
+33.0 +24.4 61 +46 +50 опасность
перегрева
1011.6 1001.0
21 18.02 штиль 0 30 км 4/4 600 м
[Cu hum]
+32.8 +23.0 56 +43 +44 опасность
перегрева
1010.2 999.0 +33.5
12 19.02 штиль 0 5000 м слаб. дождь 10/8 300 м
[Sc As op]
+23.2 +23.2 100 +33 +33 очень
душно
1015.6 1005.0 +23.0 26
15 19.02 С 3 5000 м слаб. дождь 10/10 360 м
[Sc]
+24.0 +23.6 98 +33 +33 очень
душно
1017.3 1006.0
18 19.02 С 5 30 км {дождь} 10/10 450 м
[Sc]
+26.0 +23.6 87 +35 +35 очень
душно
1014.7 1003.0 5

 

Местоположение метеостанции Сан-Матиас (Боливия): широта -16.33 долгота -58.38 высота над уровнем моря 124 м.

В архиве по умолчанию представлена погода в Сан-Матиасе за последнюю неделю. Архивные данные за месяц целиком и за предыдущие месяцы, начиная с января 2011 года, Вы можете получить, выбрав интересующий диапазон дат из раскрывающегося списка и нажав кнопку "Ввод!".


*Определитесь, кто Вы:
робот инопланетянин человек

Внимание! Время в таблицах - всемирное. Для получения местного времени необходимо прибавить поправку, которая равна -4 ч.

Смотрите также архив погоды в соседних городах и на ближайших метеорологических станциях:

Погода в Касересе (Мату-Гросу, Бразилия) (81 км)
Погода в Салту-ду-Сеу (Мату-Гросу, Бразилия) (136 км)
Погода в Понтис-и-Ласерде (Мату-Гросу, Бразилия) (159 км)
Погода в Порто-Эстреле (Мату-Гросу, Бразилия) (166 км)
Погода на Ферме Vila Bela da S Trind (Мату-Гросу, Бразилия) (212 км)
Погода в Тангара-да-Серре (Мату-Гросу, Бразилия) (213 км)
Погода в Куябе (Мату-Гросу, Бразилия) (255 км)
Погода в Куябе (Мату-Гросу, Бразилия) (256 км)
Погода в Роборе (Боливия) (265 км)
Погода в Сан-Игнасио (Боливия) (275 км)

Пояснения к столбцам:

Ветер - указаны скорость ветра в м/с - средняя за 10 мин, порывы в срок и между сроками (в фигурных скобках) и направление, откуда дует ветер: С - северный, СВ - северо-восточный, В - восточный, ЮВ - юго-восточный, Ю - южный, ЮЗ - юго-западный, З - западный, СЗ - северо-западный.
Видимость - горизонтальная дальность видимости в метрах или километрах. При видимости от 1 до 10 км при отсутствии осадков обычно наблюдается дымка, при ухудшении видимости до 1 км и менее - туман. В сухую погоду видимость может ухудшаться дымом, пылью или мглою.
Явления - указаны атмосферные явления, наблюдавшиеся в срок или в последний час перед сроком; фигурными скобками обозначены явления, наблюдавшиеся между сроками (за 1-3 часа до срока); квадратными скобками обозначены град или гололедные отложения с указанием их диаметра в мм.
Облачность - указаны через наклонную черту общая и нижняя облачность в баллах и высота нижней границы облаков в метрах; квадратными скобками обозначены формы облаков: Ci - перистые, Cs - перисто-слоистые, Cc - перисто-кучевые, Ac - высококучевые, As - высокослоистые, Sc - слоисто-кучевые, Ns - слоисто-дождевые, Cu - кучевые, Cb - кучево-дождевые. Подробнее классификацию облаков см. в Атласе облаков (PDF).
T - Температура воздуха - температура, измеренная на высоте 2 м над землей.
Td - Температура точки росы - температура, при понижении до которой содержащийся в воздухе водяной пар достигнет насыщения.
f - Относительная влажность воздуха - влажноcть воздуха, измеренная на высоте 2 м над землей.
Te - Эффективная температура - температура, которую ощущает одетый по сезону человек в тени. Характеристика душности погоды. При расчете учитывается влияние влажности воздуха и скорости ветра на теплоощущения человека.
Tes - Эффективная температура на солнце - температура, которую ощущает человек, с поправкой на солнечный нагрев. Характеристика знойности погоды. Зависит от высоты солнца над горизонтом, облачности и скорости ветра. Ночью, в пасмурную погоду, а также при ветре 12 м/с и более поправка равна нулю.
P - Атмосферное давление - приведенное к уровню моря атмосферное давление.
Po - Атмосферное давление - измеренное на уровне метеостанции атмосферное давление.
Tmin - Минимальная температура - минимум температуры воздуха на высоте 2 м над землей.
Tmax - Максимальная температура - максимум температуры воздуха на высоте 2 м над землей.
R - Количество осадков - Количество выпавших осадков за период времени, мм. При наведении курсора мыши на число - период времени, за который выпало указанное количество осадков.
R24 - Количество осадков - Количество выпавших осадков за 24 часа, мм.
S - Снежный покров - Высота снежного покрова, см. При наведении курсора мыши на число - состояние снежного покрова и степень покрытия местности в баллах.